Location: Bílinka
(49.3579°N, 14.3767°E)
Time: 11:19:06
(UTC+00:00)

Cosmos 1140 Rocket - Visible Passes

Search period start: 28 September 2023 00:00
Search period end: 08 October 2023 00:00
Orbit: 743 x 766 km, 74.1° (Epoch: 27 September)

Date Brightness Start Highest point End Pass type
(mag) Time Alt. Az. Time Alt. Az. Time Alt. Az.
28 Sep 5.8 04:10:36 10° N 04:14:59 26° NE 04:19:20 10° ESE visible
28 Sep 5.4 20:38:55 23° N 20:38:55 23° N 20:40:57 10° NNE visible
28 Sep 6.4 22:18:51 11° NW 22:19:02 11° NW 22:20:39 10° NNW visible
29 Sep 6.2 03:29:56 10° N 03:33:22 17° NE 03:36:48 10° E visible
29 Sep 5.2 19:57:50 24° NNE 19:57:50 24° NNE 19:59:52 10° NNE visible
29 Sep 6.0 21:37:45 17° NW 21:37:45 17° NW 21:40:37 10° N visible
30 Sep 6.5 02:49:49 10° NNE 02:51:37 12° NE 02:53:26 10° ENE visible
30 Sep 4.9 19:16:28 25° NE 19:16:28 25° NE 19:18:37 10° NNE visible
30 Sep 5.5 20:56:21 25° NW 20:56:21 25° NW 20:59:59 10° N visible
01 Oct 5.5 03:48:41 10° N 03:53:20 31° NE 03:57:58 10° ESE visible
01 Oct 4.5 18:34:14 27° ENE 18:34:14 27° ENE 18:37:09 10° NE visible
01 Oct 4.6 20:13:59 40° WNW 20:14:12 40° WNW 20:19:07 10° NNE visible
02 Oct 6.1 03:07:55 10° N 03:11:47 20° NE 03:15:39 10° E visible
02 Oct 4.7 17:48:03 10° SE 17:51:40 20° E 17:55:18 10° NE visible
02 Oct 3.7 19:27:46 10° SSW 19:32:53 67° WNW 19:38:04 10° NNE visible
02 Oct 6.2 21:12:56 10° WNW 21:15:43 14° NW 21:18:32 10° N visible
03 Oct 6.4 02:27:29 10° N 02:30:06 14° NE 02:32:43 10° ENE visible
03 Oct 4.1 04:07:48 10° NNW 04:13:01 61° ENE 04:18:12 10° SE visible
03 Oct 5.2 17:09:47 10° ESE 17:10:56 11° E 17:12:05 10° ENE visible
03 Oct 3.3 18:46:34 10° SSW 18:51:42 73° ESE 18:56:54 10° NNE visible
03 Oct 5.7 20:30:06 10° W 20:34:02 22° NW 20:38:02 10° N visible
04 Oct 5.1 03:26:48 10° N 03:31:40 37° ENE 03:36:31 10° SE visible
04 Oct 3.8 18:05:50 10° S 18:10:39 42° ESE 18:15:32 10° NE visible
04 Oct 5.1 19:47:52 10° WSW 19:52:31 33° NW 19:57:14 10° N visible
05 Oct 5.8 02:45:57 10° N 02:50:11 24° NE 02:54:24 10° ESE visible
05 Oct 3.5 04:27:13 10° NNW 04:32:25 65° WSW 04:37:36 10° S visible
05 Oct 4.4 17:25:39 10° SSE 17:29:44 24° E 17:33:52 10° NE visible
05 Oct 4.1 19:06:06 10° SW 19:11:08 54° WNW 19:16:16 10° NNE visible
05 Oct 6.5 20:52:04 10° WNW 20:54:11 12° NW 20:56:19 10° NNW visible
06 Oct 6.3 02:05:20 10° N 02:08:32 16° NE 02:11:44 10° E visible
06 Oct 3.7 03:46:00 10° NNW 03:51:16 75° ENE 03:56:30 10° SSE visible
06 Oct 3.4 18:24:44 10° SSW 18:29:54 90° E 18:35:08 10° NNE visible
06 Oct 6.0 20:08:52 10° W 20:12:27 18° NW 20:16:02 10° N visible
07 Oct 6.6 01:25:30 10° NNE 01:26:45 11° NE 01:28:00 10° NE visible
07 Oct 4.6 03:04:56 10° NNW 03:09:58 45° ENE 03:14:59 10° SE visible
07 Oct 3.6 17:43:48 10° S 17:48:47 52° ESE 17:53:51 10° NNE visible
07 Oct 5.4 19:26:26 10° WSW 19:30:51 28° NW 19:35:20 10° N visible
